User: anonymous   Login
Location: Unspecified
(0.0000°N, 0.0000°E)
Time: 16:49:40
(UTC+00:00)
Language:

PAKSAT 1R - Orbit

View from above orbital plane
View from above orbital plane
View from above satellite
View from above satellite

Ground track
Ground track

The orbit data is extracted from the following two-line orbital elements,

1 37779U 11042A   16179.86579177  .00000146  00000-0  00000+0 0  9995
2 37779   0.0181 134.1220 0001987 308.5578 183.3606  1.00273323 17768
Epoch (UTC): 27 June 2016 20:46:44
Eccentricity: 0.0001987
inclination: 0.0181°
perigee height: 35777 km
apogee height: 35794 km
right ascension of ascending node: 134.1220°
argument of perigee: 308.5578°
revolutions per day: 1.00273323
mean anomaly at epoch: 183.3606°
orbit number at epoch: 1776

The dashed part of the orbit path shows where the satellite is in the earth's shadow,  

DLR